2023/10/06 00:00:00, 0.3,13.2
2023/10/06 00:10:00, 0.2,13.3
2023/10/06 00:20:00, 0.2,13.4
2023/10/06 00:30:00, 0.3,13.7
2023/10/06 00:40:00, 0.3,13.6
2023/10/06 00:50:00, 0.3,13.2
2023/10/06 01:00:00, 0.3,13.6
2023/10/06 01:10:00, 0.3,13.5
2023/10/06 01:20:00, 0.2,13.4
2023/10/06 01:30:00, 0.2,13.0
2023/10/06 01:40:00, 0.1,13.2
2023/10/06 01:50:00, 0.2,13.4
2023/10/06 02:00:00, 0.2,12.9
2023/10/06 02:10:00, 0.3,13.1
2023/10/06 02:20:00, 0.2,13.2
2023/10/06 02:30:00, 0.3,13.4
2023/10/06 02:40:00, 0.2,13.1
2023/10/06 02:50:00, 0.2,13.2
2023/10/06 03:00:00, 0.2,13.4
2023/10/06 03:10:00, 0.1,13.2
2023/10/06 03:20:00, 0.2,13.0
2023/10/06 03:30:00, 0.2,13.1
2023/10/06 03:40:00, 0.2,13.2
2023/10/06 03:50:00, 0.2,13.2
2023/10/06 04:00:00, 0.2,13.2
2023/10/06 04:10:00, 0.1,13.1
2023/10/06 04:20:00, 0.1,13.2
2023/10/06 04:30:00, 0.1,13.2
2023/10/06 04:40:00, 0.2,13.2
2023/10/06 04:50:00, 0.2,13.1
2023/10/06 05:00:00, 0.3,13.3
2023/10/06 05:10:00, 0.3,13.4
2023/10/06 05:20:00, 0.2,13.5
2023/10/06 05:30:00, 0.1,13.4
2023/10/06 05:40:00, 0.2,13.4
2023/10/06 05:50:00, 0.2,13.2
2023/10/06 06:00:00, 0.3,13.4
2023/10/06 06:10:00, 0.2,13.2
2023/10/06 06:20:00, 0.2,13.4
2023/10/06 06:30:00, 0.2,13.4
2023/10/06 06:40:00, 0.2,13.6
2023/10/06 06:50:00, 0.1,13.4
2023/10/06 07:00:00, 0.3,13.7
2023/10/06 07:10:00, 0.2,14.2
2023/10/06 07:20:00, 0.3,14.5
2023/10/06 07:30:00, 0.2,14.7
2023/10/06 07:40:00, 0.2,14.9
2023/10/06 07:50:00, 0.2,14.8
2023/10/06 08:00:00, 0.2,15.1
2023/10/06 08:10:00, 0.2,15.4
2023/10/06 08:20:00, 0.2,16.2
2023/10/06 08:30:00, 0.2,16.7
2023/10/06 08:40:00, 0.3,18.5
2023/10/06 08:50:00, 0.2,18.0
2023/10/06 09:00:00, 0.2,18.4
2023/10/06 09:10:00, 0.2,21.2
2023/10/06 09:20:00, 0.1,19.1
2023/10/06 09:30:00, 0.3,18.7
2023/10/06 09:40:00, 0.2,18.6
2023/10/06 09:50:00, 0.2,19.6
2023/10/06 10:00:00, 0.3,19.1
2023/10/06 10:10:00, 1.1,21.0
2023/10/06 10:20:00, 1.8,21.2
2023/10/06 10:30:00, 3.7,20.5
2023/10/06 10:40:00, 3.8,20.3
2023/10/06 10:50:00, 4.4,20.4
2023/10/06 11:00:00, 4.6,21.1
2023/10/06 11:10:00, 4.4,20.7
2023/10/06 11:20:00, 3.0,19.5
2023/10/06 11:30:00, 2.1,19.6
2023/10/06 11:40:00, 1.9,19.1
2023/10/06 11:50:00, 1.8,18.9
2023/10/06 12:00:00, 2.0,19.9
2023/10/06 12:10:00, 2.3,19.8
2023/10/06 12:20:00, 2.0,19.4
2023/10/06 12:30:00, 2.2,21.4
2023/10/06 12:40:00, 2.3,20.8
2023/10/06 12:50:00, 2.1,21.1
2023/10/06 13:00:00, 2.3,21.5
2023/10/06 13:10:00, 2.9,23.0
2023/10/06 13:20:00, 3.0,22.3
2023/10/06 13:30:00, 2.3,20.9
2023/10/06 13:40:00, 2.3,23.2
2023/10/06 13:50:00, 3.0,22.2
2023/10/06 14:00:00, 2.5,23.2
2023/10/06 14:10:00, 2.3,23.2
2023/10/06 14:20:00, 2.4,23.4
2023/10/06 14:30:00, 2.4,22.5
2023/10/06 14:40:00, 3.3,22.5
2023/10/06 14:50:00, 2.2,22.4
2023/10/06 15:00:00, 2.4,23.5
2023/10/06 15:10:00, 2.4,25.1
2023/10/06 15:20:00, 3.2,24.4
2023/10/06 15:30:00, 4.3,22.1
2023/10/06 15:40:00, 4.5,23.8
2023/10/06 15:50:00, 4.7,22.8
2023/10/06 16:00:00, 4.9,22.1
2023/10/06 16:10:00, 5.0,25.4
2023/10/06 16:20:00, 4.9,28.1
2023/10/06 16:30:00, 5.0,25.0
2023/10/06 16:40:00, 5.0,21.7
2023/10/06 16:50:00, 5.0,19.5
2023/10/06 17:00:00, 5.1,18.1
2023/10/06 17:10:00, 5.2,18.7
2023/10/06 17:20:00, 5.1,16.9
2023/10/06 17:30:00, 5.0,16.1
2023/10/06 17:40:00, 3.8,15.6
2023/10/06 17:50:00, 2.6,15.2
2023/10/06 18:00:00, 2.4,15.0
2023/10/06 18:10:00, 2.2,14.5
2023/10/06 18:20:00, 2.0,14.3
2023/10/06 18:30:00, 1.8,14.3
2023/10/06 18:40:00, 1.5,14.3
2023/10/06 18:50:00, 1.0,13.9
2023/10/06 19:00:00, 0.8,13.7
2023/10/06 19:10:00, 1.0,14.0
2023/10/06 19:20:00, 1.1,13.8
2023/10/06 19:30:00, 1.0,13.8
2023/10/06 19:40:00, 0.8,13.5
2023/10/06 19:50:00, 0.7,13.6
2023/10/06 20:00:00, 0.7,13.7
2023/10/06 20:10:00, 0.7,13.5
2023/10/06 20:20:00, 0.6,13.3
2023/10/06 20:30:00, 0.6,13.5
2023/10/06 20:40:00, 0.6,13.5
2023/10/06 20:50:00, 0.6,13.2
2023/10/06 21:00:00, 0.6,13.2
2023/10/06 21:10:00, 0.5,13.1
2023/10/06 21:20:00, 0.6,13.2
2023/10/06 21:30:00, 0.6,13.4
2023/10/06 21:40:00, 0.5,13.4
2023/10/06 21:50:00, 0.5,13.2
2023/10/06 22:00:00, 0.5,13.4
2023/10/06 22:10:00, 0.5,13.3
2023/10/06 22:20:00, 0.5,13.4
2023/10/06 22:30:00, 0.5,13.2
2023/10/06 22:40:00, 0.5,13.3
2023/10/06 22:50:00, 0.5,12.8
2023/10/06 23:00:00, 0.5,13.1
2023/10/06 23:10:00, 0.5,13.0
2023/10/06 23:20:00, 0.5,12.9
2023/10/06 23:30:00, 0.5,12.8
2023/10/06 23:40:00, 0.6,12.6
2023/10/06 23:50:00, 0.7,12.9
